Theta_e
313 320 323 323 327 326 328 327 330 331 332 333 335 335 338 339 340 343 343 336 335 337 326 327 325 323 321 321 319 319 319 318 318 318 318 318 317 316 316 315 315 315 315 315 315 316 316 316 315
316 323 321 324 326 328 327 328 329 334 335 337 338 338 340 340 339 339 341 336 336 333 327 326 325 323 321 320 319 319 319 318 318 318 318 317 317 316 316 315 316 316 316 316 317 317 317 318 319
328 324 321 324 327 326 328 329 330 333 334 336 338 338 339 339 339 338 337 337 337 329 327 326 325 323 322 320 319 319 319 319 318 318 318 318 317 316 316 316 317 316 317 317 317 318 318 318 319
326 322 321 325 326 327 327 330 331 335 334 336 338 337 338 339 340 339 331 336 329 337 327 326 325 323 322 320 319 319 319 319 318 318 318 318 318 317 317 317 318 318 318 318 318 318 318 318 319
325 323 324 324 325 327 328 328 332 334 336 337 337 338 337 337 338 339 333 335 337 338 340 327 326 324 322 321 320 318 318 319 318 318 318 317 317 317 317 318 319 319 319 319 319 319 319 318 319
326 323 324 325 325 326 327 327 327 331 335 335 336 337 337 337 337 337 334 335 336 338 341 332 326 325 323 321 320 319 318 318 318 318 318 317 317 317 317 318 319 319 320 320 320 320 320 319 319
328 326 324 323 325 327 327 326 327 329 332 334 333 336 336 337 338 337 335 335 336 339 341 338 328 325 324 321 321 320 318 318 318 318 318 318 317 317 317 318 319 319 320 320 321 321 321 320 320
327 329 329 327 324 323 324 325 325 325 329 331 333 337 337 337 337 336 336 336 336 339 340 341 329 326 325 324 322 321 319 318 317 317 318 317 317 317 317 318 318 319 320 320 321 321 322 321 320
327 330 331 329 328 326 325 325 324 327 328 329 332 335 336 338 339 337 337 337 337 338 340 342 344 336 328 325 324 322 322 320 318 316 316 316 317 317 317 317 318 318 319 320 321 321 322 322 322
329 331 330 329 328 327 326 325 325 326 327 329 334 334 333 335 337 338 337 337 337 338 339 342 344 345 345 341 336 330 326 322 320 319 317 316 316 318 320 318 317 318 318 319 320 321 322 324 333
328 331 330 329 328 327 327 324 324 326 328 330 332 334 333 334 336 338 337 337 337 337 338 340 345 346 345 344 342 340 334 332 328 323 320 319 319 323 331 332 329 320 318 319 320 320 322 329 337
327 326 328 329 328 328 328 324 324 325 327 327 330 334 333 332 333 337 338 337 338 339 339 338 343 341 331 344 345 343 343 343 340 338 336 332 329 329 330 333 334 334 329 321 332 333 337 337 339
323 325 326 326 328 328 328 328 326 325 325 326 326 331 333 332 332 333 334 334 335 335 335 335 336 338 328 329 338 339 338 343 344 344 343 341 338 336 334 334 334 335 335 334 334 335 338 339 339
319 321 322 323 325 326 328 329 328 328 326 326 326 325 328 330 330 332 333 333 333 333 334 334 335 336 328 327 326 326 327 337 343 344 344 344 341 339 337 335 337 334 335 334 335 335 336 338 338
318 320 320 322 323 324 326 328 329 328 328 328 328 328 329 330 332 332 331 332 332 333 333 333 334 336 330 327 326 326 325 335 341 343 344 344 342 342 339 338 338 336 334 334 334 334 335 338 338
318 319 320 321 322 323 324 327 328 327 328 329 329 329 330 330 331 331 331 331 331 331 333 332 332 333 333 328 326 326 328 332 340 343 343 344 344 342 341 340 339 338 336 334 335 335 334 337 336
314 318 320 320 321 322 322 325 326 325 327 328 329 330 330 330 330 330 331 331 331 332 333 335 330 330 332 333 329 326 324 327 337 342 343 344 345 345 343 341 340 338 337 335 335 334 335 335 335
314 315 317 318 320 321 321 323 324 324 325 328 328 329 329 329 330 330 330 331 330 331 331 331 332 332 328 331 328 325 334 332 341 343 344 344 346 345 343 343 342 339 338 336 335 335 334 333 333
315 315 315 317 319 320 321 322 323 324 324 324 326 327 328 328 328 329 329 329 329 328 328 329 329 325 325 330 333 332 335 339 344 345 344 345 346 345 342 343 343 341 338 338 335 335 334 333 337
313 313 315 315 316 319 321 321 322 323 325 324 325 326 327 327 327 328 328 327 327 327 328 328 327 327 325 333 324 329 334 339 343 345 345 346 346 345 341 342 343 341 341 339 336 334 335 336 337
313 313 313 314 316 317 319 321 322 323 323 322 323 324 325 326 326 327 327 326 326 326 327 328 329 327 325 323 332 335 330 340 344 346 348 346 345 343 342 340 345 341 341 339 336 335 336 338 338
313 313 313 313 313 315 317 321 322 322 323 324 323 324 324 324 325 325 325 325 325 325 326 326 327 326 328 322 325 334 340 342 346 346 345 343 344 346 341 341 342 341 341 340 337 339 339 336 336
313 313 313 313 313 314 315 318 319 321 323 323 324 323 323 323 323 323 324 324 324 324 324 325 325 328 328 330 322 334 339 343 345 345 346 343 342 340 341 341 343 341 341 340 339 339 337 337 335
313 313 314 313 313 314 314 317 318 320 321 322 323 323 323 323 323 323 323 322 323 323 324 324 325 328 331 325 321 327 340 345 347 347 344 344 344 342 343 343 342 341 341 340 340 337 335 332 333
314 314 314 312 314 313 314 315 317 319 321 322 322 322 322 322 322 322 322 322 323 324 324 325 327 328 329 336 339 335 342 347 347 348 342 344 344 343 343 342 341 341 340 340 338 334 334 333 333
315 315 313 311 312 313 316 316 316 319 321 321 320 319 321 321 321 322 323 323 325 325 325 328 333 339 343 344 346 348 349 349 349 346 347 346 347 346 342 342 341 339 338 338 335 335 333 333 332
314 316 314 312 312 313 316 316 318 317 319 320 321 320 321 324 325 327 329 329 330 326 326 331 338 342 345 346 347 349 349 348 348 349 346 345 344 344 343 341 340 338 338 336 334 334 334 332 332
314 314 318 313 313 312 314 316 317 317 317 320 321 322 322 322 325 330 331 331 334 331 334 341 344 346 347 349 349 349 350 350 349 347 345 342 341 340 339 337 338 337 336 335 335 333 332 331 330
314 314 315 315 315 314 315 318 318 319 318 319 321 322 322 326 333 337 339 341 340 339 340 344 346 347 347 348 348 347 347 346 346 343 341 341 339 338 336 337 337 335 334 333 333 332 332 332 330
314 313 313 318 316 315 315 318 318 319 323 319 322 321 321 322 335 338 338 340 342 342 345 345 346 346 347 346 345 345 345 344 342 341 340 339 337 336 335 334 333 332 333 332 333 333 333 332 331
Wind_Speed
9 6 3 8 8 8 17 19 12 13 13 6 4 8 10 17 6 1 15 17 22 23 21 19 18 16 16 16 16 17 17 17 16 16 15 14 12 10 8 7 6 5 5 4 3 2 2 2 1
7 7 8 12 9 14 13 18 10 10 10 9 9 10 10 11 6 14 18 18 21 21 20 21 20 19 17 16 17 17 17 17 17 15 14 13 12 10 9 8 7 6 5 4 3 2 2 1 1
9 10 13 9 15 17 15 19 10 16 4 9 10 10 8 8 4 3 16 21 21 18 19 20 21 20 18 17 18 17 17 17 16 15 14 13 12 11 10 9 8 7 6 5 4 2 1 1 2
7 11 13 13 20 22 24 4 9 7 11 10 6 7 5 2 1 9 17 22 20 19 18 18 20 20 19 18 17 18 18 17 16 16 16 15 13 12 12 10 9 8 7 7 6 4 3 3 3
11 16 13 17 22 24 16 9 7 6 7 14 13 10 10 12 7 14 19 21 20 19 19 20 20 20 20 18 18 18 18 17 18 18 17 17 16 15 14 13 12 10 9 8 8 6 5 5 5
11 11 14 17 23 21 20 14 11 15 16 12 13 13 14 14 13 17 23 21 19 19 19 19 20 21 21 20 19 18 19 19 19 19 18 19 18 17 17 16 14 13 12 10 10 8 7 6 6
17 12 16 20 24 18 16 18 14 18 19 20 17 15 17 11 16 20 23 20 20 18 17 19 18 22 22 22 21 20 20 20 20 21 20 21 20 20 19 18 17 16 14 13 11 10 9 8 7
24 14 24 21 18 22 22 19 20 22 20 17 11 11 20 16 19 24 22 20 20 18 16 16 18 20 23 24 23 22 22 22 22 23 23 23 22 22 22 21 21 18 17 15 14 11 11 10 9
21 16 19 24 22 17 14 16 21 19 23 22 13 19 3 10 17 22 22 21 20 18 16 15 15 17 18 22 24 26 25 25 26 27 27 27 27 27 27 26 25 21 20 18 15 14 14 13 11
23 18 29 22 20 13 15 18 23 21 18 22 17 10 3 9 18 22 25 22 21 19 17 15 16 16 16 17 18 21 24 29 30 31 32 32 32 29 27 28 28 24 23 21 19 17 17 16 11
30 28 26 26 28 24 18 21 22 25 19 22 23 20 14 7 13 24 25 24 22 19 17 16 18 18 18 17 17 18 18 21 26 31 34 35 32 29 26 23 27 29 29 27 24 22 22 16 11
28 37 35 34 35 28 17 23 26 30 26 24 24 23 25 12 10 17 21 23 21 12 14 14 15 21 17 17 17 17 17 17 20 22 26 31 33 30 29 26 23 24 25 29 23 18 18 15 15
32 29 36 37 33 31 33 24 26 32 32 29 27 20 16 19 15 15 15 15 14 17 15 13 15 20 13 14 16 16 17 18 19 22 26 29 27 29 29 29 25 23 20 22 21 20 18 17 16
31 32 36 39 36 37 30 31 28 37 30 32 30 32 26 28 26 22 21 20 20 18 18 17 17 17 16 16 15 16 18 20 22 23 26 31 29 29 28 30 27 25 22 21 21 21 20 20 18
31 27 28 30 31 34 38 29 31 39 36 32 32 34 32 33 31 29 23 22 21 22 20 18 19 17 22 22 21 22 22 22 22 24 27 31 35 29 32 28 26 26 26 25 24 22 21 19 18
23 21 25 34 27 32 26 34 38 40 39 37 38 38 37 34 33 31 27 25 25 25 24 23 20 19 22 25 26 26 25 24 23 23 24 30 35 33 31 27 27 26 24 24 23 22 21 22 18
21 25 28 29 29 29 28 35 32 43 41 38 39 41 38 40 38 32 28 27 23 22 24 22 20 21 22 22 28 29 30 28 25 22 22 26 30 29 27 26 26 26 24 24 23 23 24 20 18
21 26 29 30 29 26 31 35 33 37 35 38 41 39 35 38 38 32 29 25 22 23 25 24 25 25 27 26 30 31 23 25 23 22 22 25 26 26 26 23 24 25 24 24 24 24 22 19 17
22 25 31 30 25 25 30 31 32 32 36 33 36 31 44 44 37 34 27 22 22 25 28 29 29 29 30 27 24 23 23 22 21 21 23 22 23 23 26 22 22 24 23 24 28 23 22 18 17
22 25 28 27 28 26 24 27 30 30 28 35 36 39 39 32 31 31 31 29 28 30 28 27 30 28 27 23 27 25 21 20 20 19 21 22 22 22 23 23 21 26 20 25 25 23 17 18 18
20 22 24 26 24 26 28 29 31 30 32 36 37 39 40 39 37 34 31 33 32 30 29 29 29 30 29 24 22 22 24 20 19 20 20 21 21 23 25 24 21 22 20 18 23 19 20 17 13
22 20 21 22 20 22 25 24 29 26 29 27 34 33 31 33 33 35 37 37 34 34 32 32 32 31 28 27 24 22 19 18 20 20 17 20 23 26 23 23 21 19 17 17 17 17 17 17 10
22 19 23 23 22 24 29 21 25 26 26 26 26 36 41 42 41 41 38 36 34 33 31 31 32 31 31 28 25 22 23 18 15 16 24 23 23 19 19 18 19 17 17 18 15 16 15 13 14
21 21 25 23 20 21 28 26 25 24 25 23 18 25 26 30 31 32 31 30 28 26 27 27 27 30 31 32 31 28 24 20 17 22 21 22 19 19 19 18 18 17 15 15 16 16 15 14 12
24 21 15 17 17 20 23 27 22 23 27 28 16 20 31 18 21 26 27 24 24 22 23 21 21 24 26 24 25 25 23 21 23 25 19 22 19 20 21 20 18 15 15 14 14 16 14 13 10
16 21 14 17 16 19 15 23 25 25 26 12 11 26 15 16 19 20 20 19 18 19 19 18 17 16 18 20 20 21 23 22 20 19 19 17 18 18 19 19 16 14 13 15 14 12 11 9 11
19 15 20 19 24 16 15 25 27 30 23 21 18 18 16 8 12 16 18 19 18 16 18 18 16 17 18 20 21 22 22 22 19 22 19 18 16 19 17 16 14 13 15 12 13 9 10 11 14
15 12 9 12 21 22 20 18 18 30 29 21 17 4 3 9 14 10 14 11 11 14 16 16 17 18 20 21 21 21 22 23 24 22 19 20 20 16 16 14 14 15 10 9 10 10 12 15 14
11 15 7 9 14 13 15 12 15 16 30 22 8 5 4 7 6 8 6 6 10 13 15 18 19 21 22 22 23 26 26 24 22 21 19 18 17 16 14 13 12 11 11 10 11 13 13 12 14
17 15 11 5 9 18 15 17 21 31 28 27 11 2 8 11 6 2 4 6 12 17 19 20 22 23 23 24 26 25 24 22 22 20 17 16 15 13 13 12 11 10 9 10 9 9 9 11 14
Wind_Direction
210 211 249 228 237 232 244 234 242 217 213 206 302 226 246 255 189 100 138 145 153 163 174 176 190 193 185 178 174 166 165 164 166 165 162 160 166 172 176 181 182 177 170 160 145 123 104 90 39
201 223 230 258 243 241 231 241 200 237 197 156 215 217 238 227 105 110 147 147 157 171 181 186 198 198 193 188 182 177 176 176 178 176 177 174 178 183 189 189 192 192 183 180 166 133 93 74 38
170 213 247 225 235 246 254 202 185 212 98 226 197 218 225 171 220 86 159 150 156 179 187 193 201 202 199 196 191 186 188 188 186 190 190 188 192 196 200 202 199 201 204 199 195 182 178 300 301
188 216 249 260 248 230 259 14 190 161 205 215 229 179 237 124 143 164 163 159 169 173 180 191 204 205 203 202 201 196 196 197 197 201 202 202 204 206 210 211 210 208 212 215 214 214 230 254 271
228 253 238 242 242 263 239 259 251 236 226 188 189 212 204 204 197 185 185 165 171 175 182 189 206 211 211 209 211 208 206 205 210 210 212 212 212 215 217 219 218 217 216 221 221 224 230 243 257
225 246 252 243 247 235 254 246 241 241 247 233 217 226 214 196 193 178 167 170 176 180 180 200 206 215 217 217 219 220 217 214 218 220 221 223 221 222 223 224 224 223 222 225 227 228 234 243 253
234 224 245 268 279 271 233 239 241 238 242 228 227 233 238 175 200 186 177 176 179 182 180 214 213 217 222 224 228 229 230 227 227 227 229 230 229 228 230 231 230 228 229 230 232 235 241 246 253
235 251 261 249 246 261 285 280 250 255 267 258 281 234 225 202 177 182 184 185 186 185 188 196 226 223 225 230 233 235 238 240 239 239 238 237 238 236 236 235 234 232 233 234 235 239 249 252 254
231 248 251 250 255 246 249 265 252 241 236 238 231 239 3 121 167 188 193 190 196 195 197 200 211 228 230 233 237 237 241 242 243 244 244 241 239 240 238 236 237 233 236 236 238 244 250 252 254
225 237 241 250 258 279 260 259 263 240 231 247 216 219 216 193 191 197 200 200 200 200 204 208 207 212 220 215 233 246 245 247 245 245 246 242 240 239 239 240 237 233 234 236 238 243 245 245 244
239 240 249 249 249 257 264 256 258 265 247 226 231 207 211 189 202 206 204 212 208 212 214 221 235 217 217 220 220 238 255 252 255 252 249 246 238 234 232 229 243 232 230 233 235 238 239 239 237
232 241 249 258 267 273 246 258 267 267 256 249 242 224 199 186 211 213 225 217 217 204 216 230 232 250 240 216 226 227 229 245 255 260 262 247 245 231 224 227 225 238 226 232 230 233 232 230 230
243 247 249 252 255 260 265 239 254 255 255 255 252 251 218 217 227 228 236 239 235 232 224 234 230 248 256 229 221 236 242 243 239 240 250 258 233 229 228 223 221 228 221 234 223 225 234 230 231
256 252 253 254 252 250 249 256 253 252 250 253 248 250 244 235 236 233 228 234 242 244 240 238 234 242 255 241 251 252 267 251 245 239 237 251 250 227 223 225 226 220 227 224 230 225 226 231 234
260 263 265 261 245 248 254 253 244 252 251 247 242 245 247 249 242 242 239 238 243 247 245 243 240 241 247 244 253 257 273 259 249 241 238 238 252 229 226 223 223 222 221 224 226 227 230 229 236
278 265 252 243 247 249 245 253 249 247 250 248 247 245 243 240 238 242 248 250 253 253 253 252 240 239 252 251 249 258 270 264 250 245 234 239 239 240 223 219 225 220 220 223 224 226 227 230 230
246 251 248 257 244 239 235 249 249 252 252 247 242 247 244 244 242 240 244 250 245 248 247 241 236 234 236 244 255 262 270 260 247 239 233 231 229 230 214 219 219 221 218 219 222 222 225 228 233
255 245 248 254 256 246 231 237 245 249 251 248 254 256 251 243 245 246 243 239 238 240 243 244 248 250 249 247 255 263 256 257 244 233 228 223 227 218 224 213 212 218 214 216 219 221 222 226 238
280 274 276 277 274 244 251 257 247 241 237 249 254 250 234 245 248 248 250 248 248 250 250 245 253 256 254 252 255 251 249 242 236 231 224 216 216 213 221 206 217 209 212 212 219 216 219 226 235
279 278 272 275 270 278 272 266 264 260 246 247 246 246 251 247 244 247 250 250 250 252 249 249 256 260 257 250 252 241 247 244 236 228 220 211 210 210 213 194 211 213 209 212 214 213 215 223 230
271 266 273 280 286 273 266 256 263 264 256 255 252 250 252 252 252 251 252 255 253 253 251 250 251 258 252 249 242 236 232 233 227 216 211 209 207 205 208 189 203 218 194 212 211 210 204 214 218
271 269 273 276 269 259 254 261 249 246 249 251 250 247 249 253 256 254 253 255 253 253 254 252 249 252 245 237 226 227 227 222 219 215 208 213 199 204 209 194 195 203 192 208 202 206 207 215 224
275 277 274 267 263 267 254 259 255 245 245 241 241 243 245 245 246 250 252 254 256 254 251 247 243 239 237 235 236 224 225 222 217 197 204 204 201 200 195 186 183 196 180 202 198 199 210 224 228
288 282 271 262 258 253 252 248 252 246 248 259 257 257 255 250 248 248 253 253 250 249 245 238 234 232 227 239 238 220 222 198 197 192 206 187 180 178 175 175 184 188 179 200 194 208 219 227 229
256 258 261 253 244 252 250 251 246 256 243 249 263 262 243 256 258 250 243 242 246 244 230 224 225 224 225 216 214 209 203 189 185 198 177 175 166 171 173 178 181 184 183 201 197 217 223 232 222
283 250 244 261 260 257 317 258 246 248 254 251 261 280 267 256 252 250 245 243 247 239 218 217 213 208 201 197 193 186 184 183 185 167 179 166 170 170 182 176 180 188 199 209 213 217 227 216 221
276 251 253 268 281 270 273 272 277 240 249 250 252 242 220 260 282 266 255 246 242 230 213 208 204 194 188 180 176 174 173 172 173 171 166 159 160 173 170 176 189 196 211 207 219 221 206 216 214
251 281 258 239 260 263 267 263 258 204 231 217 229 167 262 266 263 265 251 235 226 212 193 188 181 175 169 164 165 160 160 161 160 158 159 158 165 163 171 181 193 201 203 208 215 214 222 220 226
249 246 189 262 231 271 269 277 350 236 203 217 200 108 313 303 345 269 271 225 208 190 186 172 167 163 161 158 156 158 160 158 150 150 149 153 153 163 170 183 193 203 202 204 216 225 226 225 227
262 266 313 233 286 264 275 284 306 298 185 199 109 84 333 331 51 261 213 202 179 172 165 161 160 159 156 155 152 150 147 145 145 146 149 154 158 165 177 182 182 187 197 214 226 235 228 237 230